#timestamp,LO_Frequency,Hit,StdDev 
1508713215.1,286047002.3,N
1508713216.0,286047002.3,N
1508713235.8,286047001.7,N
1508713255.7,286047003.6,N
1508713275.5,286047003.2,N
1508713295.3,286047005.8,Y
1508713315.2,286047003.3,P
1508713335.0,286047005.4,P
1508713335.9,286047005.4,P
1508713355.7,286047005.8,Y
1508713375.6,286047001.9,P
1508713395.4,286047004.4,P
1508713415.3,286047003.1,N
1508713435.1,286047004.1,Y
1508713436.0,286047004.1,P
1508713455.8,286046998.4,P
1508713475.7,286046998.4,N
1508713495.5,286047000.7,N
1508713515.3,286046999.9,N
1508713535.2,286047002.1,N
1508713555.0,286047002.6,N
1508713555.9,286047002.6,N
1508713575.8,286047000.6,N
1508713595.6,286047000.4,N
1508713615.4,286046998.6,N
1508713635.3,286046998.4,N
1508713655.1,286046998.7,N
1508713675.9,286046998.7,N
1508713695.7,286046998.2,N
1508713715.5,286046998.4,N
1508713735.4,286046998.9,N
1508713755.2,286047000.5,N
1508713775.0,286047000.4,N
1508713775.9,286047000.4,N
1508713795.8,286047000.8,N
1508713815.6,286047000.7,N
1508713835.5,286046998.3,N
1508713855.3,286046998.2,N
1508713875.1,286046998.2,N
1508713895.9,286047000.7,N
1508713915.7,286046999.0,N
1508713935.6,286046998.4,N
1508713955.4,286046996.9,N
1508713975.2,286046996.5,N
1508713995.1,286046999.2,N
1508713996.0,286046999.2,N
1508714015.8,286046999.2,N
1508714035.6,286046999.1,N
1508714055.5,286046998.3,N
1508714075.3,286046999.6,N
1508714095.1,286046999.3,N
1508714115.9,286047001.2,N
1508714135.7,286047000.4,N
1508714155.6,286047001.0,N
1508714175.4,286047011.9,Y
1508714195.2,286047004.3,P
1508714215.1,286047002.9,N
1508714216.0,286047002.9,N
1508714235.8,286047003.3,N
1508714255.7,286047005.0,N
1508714275.5,286047004.9,N
1508714295.3,286047006.8,Y
1508714315.2,286047003.3,P
1508714335.9,286047006.0,P
1508714355.7,286047007.1,P
1508714375.6,286047008.6,Y
1508714395.4,286047005.3,P
1508714415.3,286047007.5,P
1508714435.1,286047004.9,P
1508714436.0,286047004.9,Y
1508714455.8,286046999.8,P
1508714475.7,286047000.3,N
1508714495.5,286047001.0,N
1508714515.4,286047000.9,N
1508714535.2,286047000.0,N
1508714555.0,286047000.8,N
1508714555.9,286047000.8,N
1508714575.8,286046998.4,N
1508714595.6,286047000.1,N
1508714615.4,286047002.8,N
1508714635.3,286047000.5,N
1508714655.1,286047000.5,N
1508714675.9,286046996.6,N
1508714695.7,286046999.5,N
1508714715.5,286046996.8,N
1508714735.4,286046999.4,N
1508714755.2,286046998.2,N
1508714775.0,286047001.2,N
1508714775.9,286047001.2,N
1508714795.8,286047000.4,N
1508714815.6,286046999.9,N
1508714835.5,286047002.6,N
1508714855.3,286047001.8,N
1508714875.1,286047001.7,N
1508714895.9,286047005.5,Y
1508714915.7,286047003.0,P
1508714935.5,286047002.9,N
1508714955.4,286047004.5,P
1508714975.2,286047007.6,Y
1508714995.1,286047003.1,P
1508714996.0,286047003.1,P
1508715015.8,286047004.0,P
1508715035.6,286047004.1,Y
1508715055.5,286047001.2,P
1508715075.3,286047002.0,N
1508715095.1,286047003.9,P
1508715115.9,286047011.9,Y
1508715135.7,286046998.5,P
1508715155.6,286046998.2,N
1508715175.4,286046998.1,N
1508715195.2,286047000.8,N
1508715215.1,286047000.4,N
1508715216.0,286047000.4,N
1508715235.8,286047002.8,N
1508715255.6,286047001.8,N
1508715275.5,286047001.0,N
1508715295.3,286046998.6,N
1508715315.2,286046998.7,N
1508715335.9,286047001.1,N
1508715355.7,286047000.5,N
1508715375.6,286047002.3,N
1508715395.4,286047000.0,N
1508715415.2,286047002.8,N
1508715435.1,286047001.4,N
1508715436.0,286047001.4,N
1508715455.8,286047001.4,N
1508715475.7,286047001.9,N
1508715495.5,286047002.6,N
1508715515.3,286047002.4,N
1508715535.2,286047000.9,N
1508715555.0,286046998.6,N
1508715555.9,286046998.6,N
1508715575.7,286047000.6,N
1508715595.6,286047000.2,N
1508715615.4,286047002.2,N
1508715635.3,286047001.8,N
1508715655.1,286047004.2,N
1508715656.0,286047004.2,N
1508715675.8,286047004.2,N
1508715695.7,286047001.9,N
1508715715.5,286047002.0,N
1508715735.3,286046999.8,N
1508715755.2,286047000.1,N
1508715775.0,286047002.5,N
1508715775.9,286047002.5,N
1508715795.8,286047002.5,N
1508715815.6,286047002.7,N
1508715835.4,286047003.3,N
1508715855.3,286047002.9,N
1508715875.1,286047002.9,N
1508715895.8,286047005.6,Y
1508715915.7,286046999.8,P
1508715935.5,286047001.0,N
1508715955.4,286046997.0,P
1508715975.2,286046997.3,N
1508715995.0,286046996.9,N
1508715995.9,286046996.9,N
1508716015.8,286046996.9,N
1508716035.6,286046999.3,N
1508716055.4,286046996.7,N
1508716075.3,286046997.2,N
1508716095.1,286046999.2,N
1508716115.9,286046996.6,N
1508716135.7,286046999.6,N
1508716155.5,286046996.6,N
1508716175.4,286046997.1,N
1508716195.2,286046995.3,N
1508716215.0,286046997.7,N
1508716215.9,286046997.7,N
1508716235.8,286046996.2,N
1508716255.6,286046993.4,Y
1508716275.5,286046997.8,P
1508716295.3,286046997.3,P
1508716315.1,286046997.4,P
1508716335.9,286046997.3,Y
1508716355.7,286047000.2,P
1508716375.5,286047001.7,N
1508716395.4,286047002.5,N
1508716415.2,286047002.0,N
1508716435.1,286047001.5,N
1508716436.0,286047001.5,N
1508716455.8,286047004.4,N
1508716475.6,286047001.3,N
1508716495.5,286047004.3,N
1508716515.3,286047000.0,N
1508716535.1,286047002.4,N
1508716555.9,286047001.8,N
1508716575.7,286047001.3,N
1508716595.6,286047002.2,N
1508716615.4,286047003.3,N
1508716635.2,286047005.1,Y
1508716655.1,286047003.1,P
1508716656.0,286047003.1,P
1508716675.8,286047001.7,N
1508716695.6,286047000.8,N
1508716715.5,286047000.8,N
1508716735.3,286046999.9,N
1508716755.2,286047001.0,N
1508716775.9,286047000.2,N
1508716795.7,286047000.2,N
